Location: L'Union
(43.6635°N, 1.4699°E)
Time: 00:44:19
(UTC+02:00)

Envisat - Pass Details

Date: 31 July 2021
Orbit: 764 x 766 km, 98.2° (Epoch: 17 September)

Event Time Altitude Azimuth Distance (km) Brightness Sun altitude
Rises 05:42:06 0° 35° (NE) 3,241 7.9 -10.0°
Reaches altitude 10° 05:46:16 10° 68° (ENE) 2,307 6.9 -9.4°
Maximum altitude 05:47:53 11° 87° (E) 2,204 6.3 -9.2°
Drops below altitude 10° 05:49:31 10° 106° (ESE) 2,301 6.0 -9.0°
Sets 05:53:38 0° 139° (SE) 3,219 6.3 -8.4°
